When you browse on this site, cookies collect data to enhance your experience and personalize the content and advertising you see.
Visit our Privacy Policy to learn more. By continuing to use the site, you agree to this use of cookies and data.

Hourly Weather Preston

Today, 18 September, Friday

Time Temperature Precipitation Wind Pressure Humidity
00:00 +11°C° 0 mm 3 mps 769 mmHg 84%
01:00 +10°C° 0 mm 3 mps 769 mmHg 85%
02:00 +10°C° 0 mm 3 mps 769 mmHg 86%
03:00 +10°C° 0 mm 3 mps 768 mmHg 87%
04:00 +9°C° 0 mm 3 mps 768 mmHg 87%
05:00 +9°C° 0 mm 3 mps 768 mmHg 87%
06:00 +9°C° 0 mm 3 mps 768 mmHg 88%
07:00 +10°C° 0 mm 3 mps 768 mmHg 84%
08:00 +11°C° 0 mm 4 mps 768 mmHg 79%
09:00 +13°C° 0 mm 4 mps 768 mmHg 75%
10:00 +14°C° 0 mm 5 mps 768 mmHg 71%
11:00 +15°C° 0 mm 5 mps 767 mmHg 67%
12:00 +16°C° 0 mm 5 mps 767 mmHg 63%
13:00 +16°C° 0 mm 5 mps 767 mmHg 63%
14:00 +17°C° 0 mm 5 mps 767 mmHg 62%
15:00 +17°C° 0 mm 5 mps 766 mmHg 62%
16:00 +16°C° 0 mm 5 mps 766 mmHg 67%
17:00 +14°C° 0 mm 6 mps 766 mmHg 71%
18:00 +13°C° 0 mm 6 mps 766 mmHg 75%
19:00 +11°C° 0 mm 6 mps 766 mmHg 78%
20:00 +12°C° 0 mm 5 mps 766 mmHg 81%
21:00 +10°C° 0 mm 5 mps 766 mmHg 85%
22:00 +10°C° 0 mm 5 mps 766 mmHg 86%
23:00 +9°C° 0 mm 5 mps 766 mmHg 87%

Tomorrow, 19 September, Saturday

Time Temperature Precipitation Wind Pressure Humidity
00:00 +9°C° 0 mm 5 mps 766 mmHg 88%
01:00 +9°C° 0 mm 5 mps 766 mmHg 89%
02:00 +9°C° 0 mm 5 mps 765 mmHg 89%
03:00 +9°C° 0 mm 5 mps 765 mmHg 90%
04:00 +9°C° 0 mm 5 mps 765 mmHg 90%
05:00 +9°C° 0 mm 5 mps 765 mmHg 90%
06:00 +9°C° 0 mm 5 mps 765 mmHg 90%
07:00 +10°C° 0 mm 6 mps 765 mmHg 86%
08:00 +11°C° 0 mm 6 mps 764 mmHg 82%
09:00 +14°C° 0 mm 7 mps 764 mmHg 78%
10:00 +15°C° 0 mm 7 mps 764 mmHg 75%
11:00 +16°C° 0 mm 7 mps 764 mmHg 71%
12:00 +17°C° 0 mm 7 mps 764 mmHg 68%
13:00 +17°C° 0 mm 7 mps 763 mmHg 68%
14:00 +17°C° 0 mm 7 mps 763 mmHg 68%
15:00 +17°C° 0 mm 7 mps 763 mmHg 68%
16:00 +16°C° 0 mm 7 mps 763 mmHg 71%
17:00 +15°C° 0 mm 6 mps 763 mmHg 74%
18:00 +14°C° 0 mm 6 mps 763 mmHg 77%
19:00 +13°C° 0 mm 5 mps 763 mmHg 79%
20:00 +12°C° 0 mm 5 mps 764 mmHg 81%
21:00 +10°C° 0 mm 5 mps 764 mmHg 83%
22:00 +10°C° 0 mm 5 mps 764 mmHg 85%
23:00 +11°C° 0 mm 4 mps 764 mmHg 87%

Day after tomorrow, 20 September, Sunday

Time Temperature Precipitation Wind Pressure Humidity
00:00 +11°C° 0 mm 4 mps 764 mmHg 89%
01:00 +11°C° 0 mm 4 mps 764 mmHg 90%
02:00 +11°C° 0 mm 4 mps 764 mmHg 90%
03:00 +10°C° 0 mm 5 mps 763 mmHg 91%
04:00 +11°C° 0 mm 4 mps 764 mmHg 91%
05:00 +11°C° 0 mm 4 mps 764 mmHg 91%
06:00 +11°C° 0 mm 4 mps 764 mmHg 91%
07:00 +12°C° 0 mm 4 mps 764 mmHg 87%
08:00 +13°C° 0 mm 4 mps 764 mmHg 83%
09:00 +14°C° 0 mm 5 mps 764 mmHg 80%
10:00 +16°C° 0 mm 5 mps 763 mmHg 75%
11:00 +18°C° 0 mm 4 mps 763 mmHg 71%
12:00 +19°C° 0 mm 4 mps 763 mmHg 67%
13:00 +20°C° 0 mm 4 mps 763 mmHg 65%
14:00 +20°C° 0 mm 4 mps 762 mmHg 64%
15:00 +21°C° 0 mm 4 mps 762 mmHg 62%
16:00 +19°C° 0 mm 4 mps 762 mmHg 67%
17:00 +18°C° 0 mm 4 mps 762 mmHg 72%
18:00 +17°C° 0 mm 4 mps 762 mmHg 77%
19:00 +16°C° 0 mm 3 mps 762 mmHg 80%
20:00 +14°C° 0 mm 3 mps 762 mmHg 83%
21:00 +13°C° 0 mm 3 mps 762 mmHg 86%
22:00 +12°C° 0 mm 3 mps 762 mmHg 86%
23:00 +13°C° 0 mm 2 mps 762 mmHg 87%

21 September, Monday

Time Temperature Precipitation Wind Pressure Humidity
00:00 +13°C° 0 mm 2 mps 761 mmHg 88%
01:00 +13°C° 0 mm 2 mps 761 mmHg 88%
02:00 +13°C° 0 mm 2 mps 761 mmHg 87%
03:00 +12°C° 0 mm 2 mps 760 mmHg 86%
04:00 +12°C° 0 mm 2 mps 760 mmHg 86%
05:00 +12°C° 0 mm 2 mps 760 mmHg 85%
06:00 +12°C° 0 mm 2 mps 760 mmHg 85%
07:00 +14°C° 0 mm 2 mps 760 mmHg 82%
08:00 +15°C° 0 mm 2 mps 759 mmHg 79%
09:00 +17°C° 0 mm 2 mps 759 mmHg 76%
10:00 +18°C° 0 mm 2 mps 759 mmHg 74%
11:00 +19°C° 0 mm 2 mps 759 mmHg 73%
12:00 +20°C° 0 mm 2 mps 758 mmHg 71%
13:00 +20°C° 0 mm 2 mps 758 mmHg 73%
14:00 +20°C° 0 mm 3 mps 757 mmHg 74%
15:00 +20°C° 0 mm 3 mps 757 mmHg 76%
16:00 +19°C° 0 mm 2 mps 757 mmHg 81%
17:00 +18°C° 0 mm 2 mps 756 mmHg 85%
18:00 +18°C° 0 mm 1 mps 756 mmHg 90%
19:00 +18°C° 0 mm 1 mps 756 mmHg 90%
20:00 +18°C° 0 mm 1 mps 756 mmHg 91%
21:00 +18°C° 0 mm 1 mps 756 mmHg 91%
22:00 +16°C° 0 mm 1 mps 755 mmHg 92%
23:00 +16°C° 0 mm 2 mps 754 mmHg 92%

22 September, Tuesday

Time Temperature Precipitation Wind Pressure Humidity
00:00 +16°C° 0 mm 3 mps 754 mmHg 93%
01:00 +16°C° 0 mm 3 mps 753 mmHg 93%
02:00 +16°C° 0 mm 3 mps 752 mmHg 94%
03:00 +15°C° 0 mm 4 mps 751 mmHg 94%
04:00 +15°C° 0 mm 4 mps 751 mmHg 92%
05:00 +15°C° 0 mm 5 mps 750 mmHg 90%
06:00 +15°C° 0 mm 5 mps 750 mmHg 88%
07:00 +15°C° 0 mm 6 mps 749 mmHg 86%
08:00 +15°C° 0 mm 7 mps 749 mmHg 83%
09:00 +15°C° 0 mm 8 mps 748 mmHg 80%
10:00 +15°C° 0.9 mm 8 mps 749 mmHg 83%
11:00 +13°C° 0.9 mm 8 mps 749 mmHg 86%
12:00 +13°C° 0.9 mm 8 mps 749 mmHg 89%
13:00 +12°C° 0.1 mm 8 mps 749 mmHg 84%
14:00 +12°C° 0.1 mm 8 mps 750 mmHg 79%
15:00 +12°C° 0.1 mm 8 mps 750 mmHg 74%
16:00 +11°C° 0 mm 7 mps 751 mmHg 74%
17:00 +10°C° 0 mm 6 mps 751 mmHg 74%
18:00 +10°C° 0 mm 6 mps 752 mmHg 74%
19:00 +9°C° 0 mm 5 mps 752 mmHg 75%
20:00 +9°C° 0 mm 5 mps 752 mmHg 75%
21:00 +8°C° 0 mm 4 mps 753 mmHg 76%
22:00 +9°C° 0 mm 3 mps 753 mmHg 77%
23:00 +8°C° 0 mm 3 mps 753 mmHg 78%

23 September, Wednesday

Time Temperature Precipitation Wind Pressure Humidity
00:00 +8°C° 0 mm 2 mps 753 mmHg 78%
01:00 +8°C° 0 mm 2 mps 753 mmHg 78%
02:00 +8°C° 0 mm 2 mps 753 mmHg 77%
03:00 +8°C° 0 mm 2 mps 752 mmHg 76%
04:00 +8°C° 0.1 mm 2 mps 752 mmHg 76%
05:00 +8°C° 0.1 mm 3 mps 752 mmHg 77%
06:00 +8°C° 0.1 mm 3 mps 752 mmHg 77%
07:00 +8°C° 0.3 mm 4 mps 751 mmHg 76%
08:00 +10°C° 0.3 mm 4 mps 751 mmHg 75%
09:00 +9°C° 0.3 mm 5 mps 750 mmHg 73%
10:00 +9°C° 0.3 mm 6 mps 750 mmHg 74%
11:00 +10°C° 0.3 mm 6 mps 749 mmHg 75%
12:00 +10°C° 0.3 mm 7 mps 748 mmHg 75%
13:00 +10°C° 0.2 mm 7 mps 747 mmHg 77%
14:00 +9°C° 0.2 mm 7 mps 746 mmHg 80%
15:00 +9°C° 0.2 mm 6 mps 745 mmHg 82%
16:00 +9°C° 0.2 mm 7 mps 744 mmHg 83%
17:00 +10°C° 0.2 mm 7 mps 743 mmHg 84%
18:00 +10°C° 0.2 mm 8 mps 742 mmHg 84%
19:00 +10°C° 1.4 mm 8 mps 741 mmHg 86%
20:00 +10°C° 1.4 mm 8 mps 740 mmHg 88%
21:00 +10°C° 1.4 mm 8 mps 739 mmHg 89%
22:00 +10°C° 1.4 mm 8 mps 739 mmHg 87%
23:00 +9°C° 1.4 mm 7 mps 738 mmHg 86%
Show more